Location: Rounton
(54.4000°N, 1.3500°W)
Time: 14:52:40
(UTC+01:00)

S-56A Canister/Altair - Pass Details

Date: 08 September 2024
Orbit: 636 x 2487 km, 38.9° (Epoch: 02 October)

Event Time Altitude Azimuth Distance (km) Brightness Sun altitude
Rises 20:20:09 0° 188° (S) 3,788 11.0 -6.7°
Reaches altitude 10° 20:24:24 10° 162° (SSE) 3,197 10.3 -7.3°
Maximum altitude 20:27:47 13° 136° (SE) 3,244 10.2 -7.8°
Drops below altitude 10° 20:31:40 10° 112° (ESE) 3,810 10.4 -8.3°
Enters shadow 20:32:01 10° 111° (ESE) 3,879 10.4 -8.3°
Sets 20:37:49 0° 90° (E) 5,269 - -9.1°
